Vertical_Velocity
-2 1 1 1 -0 -0 -0 0 0 -5 1 -0 -13 6 -6 -6 1 0 -1 -1 -2 -1 -0 -1 -0 -0 -0 0 -1 -3 -1 -1 -2 -2 -2 -2 -4 -4 -3 -1 -2 -2 4 -6
0 -0 0 -0 0 1 0 -1 -2 -4 -6 -4 -7 8 -3 -0 -0 0 -1 -1 -0 -1 -0 -0 -0 -0 -0 0 -1 -4 -1 1 1 0 -3 -3 -4 -2 -3 -6 1 -0 -8 -9
1 0 -1 0 -0 -2 -1 -2 -2 -4 -2 -4 -6 2 -6 -1 -1 -1 -1 -2 -2 1 1 -0 -0 0 -1 -2 -2 0 -0 -0 -1 -2 -3 -4 -1 -2 -0 -0 -3 -5 -8 -8
1 -1 -1 -1 -0 -1 -2 -3 -2 -3 -3 -6 -5 6 -3 1 -1 -2 -0 1 0 1 -0 0 -0 -2 -2 -0 1 -1 -1 -2 -2 -3 -2 -1 -0 1 1 0 -3 -4 -5 -6
-0 -1 -2 -2 -1 -2 -0 -1 -3 -3 -3 -3 -1 -2 -2 -1 0 1 0 1 1 1 0 -0 -1 -0 2 0 -1 0 -2 -1 -1 -0 0 -2 -1 -1 -3 -4 -5 -7 -7 -5
-3 -2 -1 -1 -1 -1 -1 -2 -3 -2 -1 -1 -2 -0 -2 -2 -1 -0 -0 0 -0 -0 0 1 -0 -0 -1 -2 -1 -0 -2 -1 -1 -2 -1 -1 -1 -1 -2 -3 -3 -5 -4 -3
-0 -0 -1 -1 -2 -1 -2 -1 -1 -1 -1 -2 -1 -2 -2 -2 -2 -0 -0 -1 0 0 1 1 -3 -1 -1 -0 -1 -1 -1 -1 -2 -2 -1 -1 -3 -3 -2 -2 -2 -2 -4 -3
-1 -1 -2 -3 -2 -1 -0 -2 -0 -0 -1 -3 -3 -2 -1 -0 -1 -1 0 1 -2 2 -0 -4 0 -1 -2 -0 -0 -1 -2 -2 -1 -1 -3 -1 -0 -1 -2 -3 -4 -3 -1 -2
-0 -0 0 1 1 0 -3 -2 -0 -0 -1 -2 -1 0 2 1 1 -0 -3 -2 2 1 -0 -0 -1 0 -1 -1 -2 -1 -1 -2 -2 -1 -1 -1 -1 -2 -2 -1 1 0 -1 0
-3 -3 -2 -2 -2 -1 -0 1 0 -1 -0 1 -1 0 -1 -0 -0 -1 -2 1 2 0 -0 -0 -0 0 -0 0 -2 -1 -1 -2 -2 -2 -1 -0 -0 -1 -0 -0 -1 -1 2 -1
-1 -1 -0 -1 -1 -1 -0 -0 -1 -1 -1 -3 0 2 -2 -1 -2 -1 -1 1 2 1 1 -0 -1 -1 -1 -1 -1 -1 -1 -0 1 1 1 0 -2 -1 -1 1 1 -0 -1 -1
-0 0 -0 -0 -1 -1 -1 -0 0 -1 3 1 -1 12 -1 -0 -4 -6 0 0 -0 -2 1 2 0 -1 -2 -2 -2 -1 -1 -2 -2 -1 -2 -2 -3 -1 -1 -1 0 -1 -2 -3
-0 -1 -1 -0 -1 -1 -0 -1 -1 -2 -0 5 -4 -3 2 -3 -4 -2 0 1 -1 1 -1 -2 -3 -3 -3 -3 -3 -2 -2 -0 0 2 -0 0 -1 3 -0 1 0 2 2 0
0 2 -1 -0 1 -1 2 1 0 -2 -2 -6 8 4 -7 -8 -3 0 2 -0 2 2 1 -1 -2 -1 -1 -1 -1 1 0 0 2 1 1 0 -3 -0 -5 0 -1 1 1 3
-0 3 -2 -2 -2 -2 1 1 -5 3 2 -6 4 0 -4 -4 4 3 0 -1 -1 -1 -2 -3 -1 -1 -3 -2 -1 -1 -0 2 -1 -1 -2 -2 -0 3 1 2 4 5 5 3
1 -1 -2 6 -2 -3 2 -4 0 -1 -2 4 -3 9 -2 -1 -2 -2 -5 -2 -1 -1 -2 -3 -4 -1 -0 -1 1 2 2 2 2 1 -0 0 -2 -0 2 -0 1 -0 -1 1
1 -1 -2 11 1 -1 2 1 0 -0 0 -0 0 -3 1 -1 2 2 2 -1 -0 -1 -2 -2 -2 -1 -3 -4 -4 0 -1 -2 -2 -1 -3 0 2 2 -1 -2 0 -1 1 1
1 -2 -5 4 -1 1 -2 0 -1 2 3 1 -1 -1 -2 0 2 -1 -6 1 -1 -3 0 -1 -0 4 -2 -4 1 3 -4 -2 -3 -2 -1 1 4 0 -1 1 -1 -2 -2 1
0 -2 -4 -5 -3 2 3 -3 0 0 4 4 2 1 1 -1 1 3 0 -4 -4 -1 -0 -0 2 2 3 -2 2 8 2 -5 -2 1 1 -1 -0 1 1 3 -1 -1 0 -1
1 -0 -1 -0 -3 -3 5 -0 1 -1 -7 2 2 1 1 2 3 5 0 1 0 -3 -5 -5 -2 -1 -6 -2 -2 3 1 -4 1 3 1 -0 0 0 2 0 3 1 2 1
1 -1 -1 -3 -5 6 0 0 -6 -4 -5 -3 1 2 4 -1 -8 4 0 7 -1 -3 2 0 0 -3 -6 -2 -2 -1 0 -5 -2 1 1 -1 -3 3 -5 -1 1 1 0 -2
1 -3 4 -1 -2 -0 1 2 1 3 -2 -1 -0 1 -4 -1 -1 -0 2 -2 1 -0 4 1 1 4 -2 -1 -4 3 4 3 1 1 3 -3 -1 -1 1 -4 -1 1 1 2
-4 2 -10 6 5 4 -5 -3 -4 -4 1 -1 3 -1 -2 -2 -4 -1 4 -2 -0 -4 -2 -4 -4 3 -4 -2 -11 0 -1 -1 1 -0 -1 -1 -1 -1 1 2 -2 1 -1 2
3 2 -1 -11 32 -2 -5 -3 -7 -2 0 2 1 1 0 -3 2 1 2 -4 -3 -2 -1 -3 0 -2 0 -1 -3 -8 -5 -2 -3 0 -0 1 2 -0 -2 1 1 0 5 2
9 -2 3 -1 12 -14 5 -2 -5 -1 -0 -4 -5 -3 -5 -7 4 -2 -0 -0 1 1 2 -5 -2 0 -1 2 1 -1 -2 -3 -1 -2 -2 -1 -1 -1 0 -1 2 2 0 -1
18 15 -17 -5 -3 -18 10 -3 -0 -6 3 -5 -4 -1 -2 -8 -1 -1 -0 -3 -2 -2 -4 -0 -4 -4 -1 -1 -2 1 -2 -2 -3 -1 -4 -2 -1 1 -1 -3 4 5 3 1
Height
5802 5805 5806 5807 5808 5809 5808 5808 5807 5805 5805 5804 5802 5801 5798 5796 5794 5792 5790 5789 5788 5787 5786 5785 5784 5783 5782 5781 5780 5777 5774 5772 5769 5765 5760 5754 5749 5744 5738 5733 5727 5721 5711 5700
5800 5801 5803 5804 5804 5804 5804 5803 5802 5801 5799 5797 5795 5794 5792 5790 5787 5785 5784 5783 5782 5783 5782 5782 5782 5781 5780 5779 5776 5773 5770 5768 5764 5760 5754 5749 5745 5740 5734 5728 5722 5713 5702 5687
5796 5799 5799 5800 5800 5800 5799 5798 5796 5795 5793 5790 5788 5788 5785 5783 5781 5779 5779 5779 5779 5779 5780 5780 5780 5779 5777 5775 5772 5769 5766 5763 5759 5754 5749 5746 5741 5736 5730 5724 5716 5706 5694 5677
5793 5795 5795 5795 5795 5795 5794 5792 5791 5789 5787 5785 5783 5782 5779 5778 5776 5775 5775 5775 5776 5778 5779 5778 5777 5776 5773 5771 5769 5765 5762 5758 5753 5749 5746 5742 5738 5733 5727 5720 5712 5701 5688 5672
5792 5791 5791 5791 5791 5790 5790 5788 5787 5785 5783 5781 5780 5779 5777 5774 5772 5772 5772 5773 5775 5776 5776 5775 5774 5772 5770 5767 5765 5761 5757 5752 5749 5745 5742 5739 5735 5730 5724 5717 5708 5698 5685 5670
5787 5788 5788 5787 5787 5786 5785 5785 5784 5783 5781 5780 5778 5777 5775 5772 5770 5769 5770 5772 5773 5774 5773 5771 5769 5767 5765 5763 5759 5756 5752 5748 5745 5742 5739 5735 5731 5726 5720 5713 5704 5694 5683 5671
5784 5785 5784 5784 5783 5783 5783 5783 5782 5781 5779 5777 5775 5775 5774 5772 5771 5770 5771 5771 5771 5771 5770 5768 5765 5763 5760 5758 5754 5750 5747 5743 5740 5737 5734 5730 5727 5722 5716 5709 5701 5692 5683 5673
5781 5782 5782 5782 5782 5782 5781 5780 5779 5778 5776 5774 5772 5771 5772 5771 5770 5770 5769 5768 5768 5767 5765 5763 5761 5758 5756 5753 5750 5746 5742 5739 5736 5733 5730 5726 5722 5717 5712 5705 5698 5691 5683 5674
5780 5781 5780 5780 5780 5780 5778 5778 5778 5776 5774 5772 5770 5769 5769 5768 5768 5767 5766 5765 5764 5762 5760 5758 5756 5754 5751 5748 5745 5741 5738 5735 5732 5729 5725 5722 5717 5713 5707 5701 5694 5688 5682 5675
5779 5779 5779 5778 5778 5778 5777 5776 5776 5773 5772 5771 5769 5768 5767 5765 5764 5763 5762 5761 5760 5758 5756 5753 5751 5749 5746 5743 5740 5736 5733 5730 5727 5724 5720 5716 5712 5707 5702 5697 5691 5686 5680 5675
5777 5778 5778 5777 5776 5776 5775 5774 5772 5771 5770 5769 5768 5767 5763 5761 5759 5758 5758 5757 5756 5754 5751 5749 5746 5742 5739 5736 5733 5730 5727 5724 5721 5717 5714 5710 5706 5702 5697 5693 5689 5684 5678 5673
5775 5775 5775 5775 5773 5772 5771 5770 5769 5768 5768 5765 5763 5764 5759 5756 5754 5754 5754 5752 5750 5749 5747 5743 5739 5735 5731 5728 5725 5722 5720 5717 5714 5711 5708 5704 5700 5696 5691 5686 5682 5678 5675 5670
5773 5772 5772 5771 5771 5769 5768 5766 5765 5763 5762 5762 5759 5758 5753 5749 5748 5748 5747 5747 5745 5742 5737 5734 5731 5728 5725 5722 5719 5716 5713 5710 5708 5704 5700 5696 5693 5689 5684 5680 5676 5672 5668 5665
5769 5768 5767 5767 5766 5764 5763 5761 5759 5757 5757 5755 5756 5753 5747 5743 5742 5742 5741 5738 5736 5733 5730 5726 5723 5719 5716 5714 5711 5709 5705 5702 5699 5696 5692 5688 5685 5681 5677 5672 5669 5665 5660 5657
5764 5764 5762 5761 5759 5757 5757 5755 5752 5751 5750 5744 5749 5745 5741 5740 5738 5736 5733 5730 5727 5724 5721 5717 5714 5711 5708 5705 5703 5700 5698 5695 5691 5687 5683 5679 5675 5671 5667 5663 5660 5657 5652 5649
5758 5757 5756 5756 5752 5749 5749 5747 5745 5742 5740 5739 5738 5738 5734 5733 5731 5729 5726 5723 5721 5717 5713 5709 5704 5701 5699 5696 5693 5691 5687 5685 5681 5677 5673 5668 5664 5661 5658 5654 5650 5645 5642 5639
5750 5748 5747 5748 5745 5742 5743 5738 5735 5734 5732 5731 5729 5728 5726 5724 5723 5720 5717 5713 5710 5705 5702 5698 5694 5693 5691 5687 5682 5680 5677 5673 5669 5666 5660 5656 5653 5650 5646 5642 5639 5634 5629 5627
5742 5739 5738 5738 5736 5734 5734 5731 5726 5725 5723 5721 5719 5717 5716 5715 5715 5711 5706 5703 5698 5694 5691 5688 5684 5683 5679 5674 5672 5669 5666 5662 5657 5653 5647 5645 5643 5639 5634 5630 5626 5622 5617 5615
5732 5730 5728 5727 5727 5726 5724 5722 5717 5714 5712 5710 5709 5707 5705 5704 5704 5701 5696 5691 5686 5682 5680 5676 5674 5671 5667 5662 5659 5656 5653 5649 5645 5640 5635 5631 5628 5625 5621 5618 5614 5610 5606 5602
5723 5720 5719 5717 5713 5714 5716 5712 5707 5703 5697 5699 5696 5694 5694 5693 5691 5692 5685 5681 5675 5671 5667 5663 5660 5657 5653 5649 5645 5641 5637 5633 5630 5627 5622 5617 5612 5609 5605 5600 5597 5593 5590 5587
5714 5711 5709 5706 5700 5704 5703 5701 5698 5695 5693 5685 5683 5682 5681 5678 5674 5672 5672 5669 5663 5659 5655 5652 5649 5644 5639 5635 5631 5627 5622 5617 5613 5609 5605 5600 5595 5591 5587 5584 5582 5579 5576 5573
5705 5702 5701 5696 5692 5691 5693 5687 5686 5683 5678 5675 5673 5672 5668 5665 5661 5659 5654 5649 5647 5644 5640 5634 5630 5625 5620 5615 5612 5610 5605 5600 5595 5590 5584 5580 5576 5572 5567 5562 5559 5556 5555 5553
5693 5692 5687 5689 5685 5682 5674 5665 5663 5662 5661 5660 5658 5655 5651 5648 5644 5640 5637 5634 5629 5626 5622 5617 5613 5608 5601 5596 5592 5589 5582 5577 5572 5566 5562 5557 5553 5549 5546 5542 5538 5536 5532 5531
5680 5678 5678 5674 5677 5667 5659 5652 5648 5647 5644 5641 5638 5634 5631 5629 5626 5623 5619 5614 5609 5603 5598 5593 5588 5583 5578 5573 5569 5565 5560 5555 5549 5544 5539 5535 5532 5527 5524 5521 5517 5514 5512 5510
5667 5665 5666 5659 5657 5647 5643 5638 5633 5632 5629 5626 5620 5615 5610 5605 5602 5597 5593 5588 5584 5579 5575 5570 5565 5561 5556 5552 5546 5541 5537 5533 5528 5522 5518 5514 5510 5507 5504 5502 5498 5495 5492 5491
5655 5653 5645 5640 5634 5627 5625 5622 5619 5614 5611 5606 5601 5598 5593 5587 5583 5578 5573 5568 5563 5560 5556 5551 5545 5541 5536 5531 5526 5522 5517 5513 5509 5506 5501 5497 5493 5488 5484 5481 5478 5475 5472 5471